Printer-friendly version

IAU Minor Planet Center

Minor Planet Center

(57) Mnemosyne

Orbital Elements

The following orbital elements are taken from MPO 20668
   (57) Mnemosyne
Epoch 2005 Jan. 30.0 TT = JDT 2453400.5                 Goffin
M 304.40504              (2000.0)            P               Q
n   0.17629565     Peri.  213.04310     +0.61664008     -0.78243990
a   3.1499838      Node   199.34416     +0.76714182     +0.62199749
e   0.1184860      Incl.   15.20024     +0.17677229     +0.03011512
P   5.59           H    7.03          G   0.15           U   0
From 1416 observations at 106 oppositions, 1859-2001, mean residual 0".55.
An explanation of the orbital elements is available.

These orbital elements are also available in forms suitable for loading into a number of popular planetarium-type software programs.


Ephemeris

The following ephemeris is at intervals of five days. A daily ephemeris covering the same time interval is also available.

Personalized ephemerides for this object (and others) can be generated using the MPES.

Date    TT    R. A. (2000) Decl.     Delta      r     Elong.  Phase     V
 
2005 09 18    03 16.27   +13 04.3    2.095    2.793   124.8    17.2    11.8
2005 09 23    03 16.60   +12 33.7    2.042    2.791   129.7    16.1    11.7
2005 09 28    03 16.33   +11 59.9    1.992    2.789   134.7    14.8    11.6
2005 10 03    03 15.44   +11 22.9    1.947    2.788   139.8    13.4    11.5
2005 10 08    03 13.97   +10 43.3    1.907    2.786   145.1    11.8    11.4
2005 10 13    03 11.95   +10 01.3    1.873    2.785   150.5    10.2    11.3
2005 10 18    03 09.43   +09 17.7    1.845    2.784   155.8     8.4    11.2
2005 10 23    03 06.49   +08 33.0    1.823    2.782   161.0     6.7    11.1
2005 10 28    03 03.20   +07 48.0    1.808    2.781   165.7     5.0    11.0
2005 11 02    02 59.67   +07 03.7    1.799    2.780   169.2     3.8    10.9
2005 11 07    02 56.02   +06 20.8    1.798    2.780   170.0     3.6    10.9
2005 11 12    02 52.36   +05 40.4    1.805    2.779   167.4     4.5    10.9
2005 11 17    02 48.81   +05 03.1    1.818    2.778   163.0     6.0    11.0
2005 11 22    02 45.48   +04 29.7    1.838    2.778   157.9     7.7    11.1
2005 11 27    02 42.46   +04 00.7    1.865    2.777   152.5     9.4    11.2
2005 12 02    02 39.86   +03 36.5    1.897    2.777   147.1    11.1    11.3
2005 12 07    02 37.73   +03 17.3    1.936    2.777   141.7    12.7    11.4
2005 12 12    02 36.13   +03 03.2    1.980    2.777   136.4    14.2    11.5
2005 12 17    02 35.09   +02 54.1    2.028    2.777   131.2    15.5    11.6
2005 12 22    02 34.63   +02 49.8    2.081    2.777   126.2    16.6    11.7
2005 12 27    02 34.76   +02 50.0    2.137    2.778   121.2    17.6    11.8

Back to Bright Minor Planets

Astronomical Headlines Index

MPC


Valid HTML 4.01!